Simultaneous Nadir Overpasses (SNOs) Predictions

Prediction of SNOs between AQUA and METOP-A Satellite Orbit:

Table of predicted SNOs for the next 14.0 days since TLE Epoch: 11/22/2014
Index Date (AQUA) Time (AQUA) Lat,Lon (AQUA) SZA (AQUA ) Date (METOP-A) Time (METOP-A) Lat,Lon (METOP-A) SZA (METOP-A ) Distance(km) Time Diff (sec)
1 11/24/2014 00:47:23 -73.75, -17.45 85.85 11/24/2014 00:46:13 -73.75, -17.38 85.84 2.41 70
2 11/24/2014 01:36:52 73.82, 150.02 94.24 11/24/2014 01:36:51 73.83, 150.14 94.25 3.77 1
3 11/24/2014 02:26:19 -73.90, -42.51 85.68 11/24/2014 02:27:32 -73.88, -42.41 85.70 3.60 73
4 11/26/2014 20:21:36 -73.73, 49.03 85.31 11/26/2014 20:20:37 -73.73, 48.98 85.31 1.57 59
5 11/26/2014 21:11:05 73.81,-143.51 94.78 11/26/2014 21:11:15 73.81,-143.52 94.77 0.95 10
6 11/26/2014 22:00:38 -74.25, 23.14 84.77 11/26/2014 22:01:47 -74.26, 24.92 84.78 53.61 69
7 11/29/2014 15:55:47 -73.73, 115.49 84.82 11/29/2014 15:54:59 -73.75, 115.42 84.79 3.10 48
8 11/29/2014 16:45:16 73.81, -77.06 95.28 11/29/2014 16:45:37 73.82, -77.08 95.29 0.93 21
9 12/02/2014 11:29:59 -73.79,-178.17 84.31 12/02/2014 11:29:22 -73.76,-178.16 84.34 3.21 37
10 12/02/2014 12:19:27 73.82, -10.62 95.73 12/02/2014 12:20:00 73.82, -10.67 95.73 1.63 33
11 12/05/2014 07:04:09 -73.80,-111.73 83.91 12/05/2014 07:03:44 -73.80,-111.64 83.91 2.81 25
12 12/05/2014 07:53:37 73.84, 55.81 96.14 12/05/2014 07:54:22 73.86, 55.84 96.16 3.07 45




NCC Satellite Simultaneous Nadir Overpasses (SNOs) Prediction Service
